Location: Beugnon
(47.6222°N, 3.7850°E)
Time: 09:17:40
(UTC+00:00)

BREEZE M DEB (TANK) - Pass Details

Date: 09 April 2020
Orbit: 313 x 13665 km, 49.6° (Epoch: 06 June)

Event Time Altitude Azimuth Distance (km) Brightness Sun altitude
Rises 20:37:01 0° 253° (WSW) 6,028 8.6 -20.5°
Reaches altitude 10° 20:42:34 10° 254° (WSW) 3,565 7.3 -21.2°
Maximum altitude 20:49:27 86° 345° (NNW) 590 2.9 -22.1°
Enters shadow 20:49:51 69° 62° (ENE) 591 2.8 -22.1°
